Year,Month,Day,Hour,Minute,Value (Times are PST for windspeed in km/hr)
2011,03,01,00,00,0.00
2011,03,01,00,01,0.00
2011,03,01,00,02,0.10
2011,03,01,00,03,0.10
2011,03,01,00,04,0.30
2011,03,01,00,05,1.80
2011,03,01,00,06,3.40
2011,03,01,00,07,3.10
2011,03,01,00,08,1.90
2011,03,01,00,09,0.60
2011,03,01,00,10,0.00
2011,03,01,00,11,0.00
2011,03,01,00,12,0.10
2011,03,01,00,13,0.00
2011,03,01,00,14,0.20
2011,03,01,00,15,0.90
2011,03,01,00,16,1.70
2011,03,01,00,17,2.00
2011,03,01,00,18,2.60
2011,03,01,00,19,1.50
2011,03,01,00,20,0.30
2011,03,01,00,21,0.00
2011,03,01,00,22,0.00
2011,03,01,00,23,0.00
2011,03,01,00,24,0.00
2011,03,01,00,25,0.00
2011,03,01,00,26,0.00
2011,03,01,00,27,0.00
2011,03,01,00,28,0.00
2011,03,01,00,29,0.00
2011,03,01,00,30,0.00
2011,03,01,00,31,0.50
2011,03,01,00,32,1.10
2011,03,01,00,33,0.10
2011,03,01,00,34,0.20
2011,03,01,00,35,0.60
2011,03,01,00,36,0.00
2011,03,01,00,37,0.20
2011,03,01,00,38,0.50
2011,03,01,00,39,0.30
2011,03,01,00,40,0.00
2011,03,01,00,41,0.00
2011,03,01,00,42,0.00
2011,03,01,00,43,0.00
2011,03,01,00,44,0.00
2011,03,01,00,45,0.00
2011,03,01,00,46,0.10
2011,03,01,00,47,1.40
2011,03,01,00,48,1.70
2011,03,01,00,49,0.70
2011,03,01,00,50,0.00
2011,03,01,00,51,0.00
2011,03,01,00,52,0.00
2011,03,01,00,53,0.30
2011,03,01,00,54,3.80
2011,03,01,00,55,3.90
2011,03,01,00,56,2.50
2011,03,01,00,57,2.50
2011,03,01,00,58,0.20
2011,03,01,00,59,0.20
2011,03,01,01,00,1.20
2011,03,01,01,01,1.30
2011,03,01,01,02,0.20
2011,03,01,01,03,0.00
2011,03,01,01,04,0.00
2011,03,01,01,05,0.00
2011,03,01,01,06,0.00
2011,03,01,01,07,0.00
2011,03,01,01,08,0.00
2011,03,01,01,09,0.00
2011,03,01,01,10,0.00
2011,03,01,01,11,0.10
2011,03,01,01,12,0.00
2011,03,01,01,13,0.00
2011,03,01,01,14,0.30
2011,03,01,01,15,2.20
2011,03,01,01,16,2.00
2011,03,01,01,17,2.10
2011,03,01,01,18,2.10
2011,03,01,01,19,0.30
2011,03,01,01,20,0.70
2011,03,01,01,21,2.10
2011,03,01,01,22,2.90
2011,03,01,01,23,3.60
2011,03,01,01,24,2.60
2011,03,01,01,25,2.50
2011,03,01,01,26,3.10
2011,03,01,01,27,3.30
2011,03,01,01,28,2.20
2011,03,01,01,29,1.40
2011,03,01,01,30,0.80
2011,03,01,01,31,1.70
2011,03,01,01,32,1.60
2011,03,01,01,33,1.90
2011,03,01,01,34,1.20
2011,03,01,01,35,0.10
2011,03,01,01,36,0.00
2011,03,01,01,37,0.00
2011,03,01,01,38,0.00
2011,03,01,01,39,0.00
2011,03,01,01,40,0.10
2011,03,01,01,41,0.70
2011,03,01,01,42,0.30
2011,03,01,01,43,0.40
2011,03,01,01,44,0.00
2011,03,01,01,45,0.00
2011,03,01,01,46,0.90
2011,03,01,01,47,0.50
2011,03,01,01,48,0.00
2011,03,01,01,49,0.20
2011,03,01,01,50,0.00
2011,03,01,01,51,0.10
2011,03,01,01,52,0.00
2011,03,01,01,53,0.00
2011,03,01,01,54,0.00
2011,03,01,01,55,0.00
2011,03,01,01,56,1.40
2011,03,01,01,57,1.10
2011,03,01,01,58,1.90
2011,03,01,01,59,2.50
2011,03,01,02,00,0.60
2011,03,01,02,01,1.40
2011,03,01,02,02,1.10
2011,03,01,02,03,0.20
2011,03,01,02,04,0.00
2011,03,01,02,05,0.20
2011,03,01,02,06,0.00
2011,03,01,02,07,0.00
2011,03,01,02,08,0.00
2011,03,01,02,09,0.00
2011,03,01,02,10,0.00
2011,03,01,02,11,0.00
2011,03,01,02,12,0.00
2011,03,01,02,13,0.00
2011,03,01,02,14,0.20
2011,03,01,02,15,0.60
2011,03,01,02,16,0.20
2011,03,01,02,17,0.10
2011,03,01,02,18,0.10
2011,03,01,02,19,1.50
2011,03,01,02,20,0.50
2011,03,01,02,21,1.00
2011,03,01,02,22,2.10
2011,03,01,02,23,2.80
2011,03,01,02,24,4.10
2011,03,01,02,25,4.40
2011,03,01,02,26,3.40
2011,03,01,02,27,2.90
2011,03,01,02,28,2.20
2011,03,01,02,29,0.90
2011,03,01,02,30,0.70
2011,03,01,02,31,1.50
2011,03,01,02,32,0.00
2011,03,01,02,33,0.00
2011,03,01,02,34,0.00
2011,03,01,02,35,0.00
2011,03,01,02,36,0.00
2011,03,01,02,37,0.00
2011,03,01,02,38,0.00
2011,03,01,02,39,0.00
2011,03,01,02,40,0.00
2011,03,01,02,41,0.00
2011,03,01,02,42,0.00
2011,03,01,02,43,0.00
2011,03,01,02,44,0.00
2011,03,01,02,45,0.00
2011,03,01,02,46,0.00
2011,03,01,02,47,0.90
2011,03,01,02,48,0.30
2011,03,01,02,49,0.00
2011,03,01,02,50,0.00
2011,03,01,02,51,0.00
2011,03,01,02,52,0.00
2011,03,01,02,53,0.00
2011,03,01,02,54,0.00
2011,03,01,02,55,0.00
2011,03,01,02,56,0.00
2011,03,01,02,57,0.00
2011,03,01,02,58,0.00
2011,03,01,02,59,0.00
2011,03,01,03,00,0.10
2011,03,01,03,01,0.00
2011,03,01,03,02,0.00
2011,03,01,03,03,1.40
2011,03,01,03,04,3.20
2011,03,01,03,05,3.50
2011,03,01,03,06,3.70
2011,03,01,03,07,2.90
2011,03,01,03,08,3.20
2011,03,01,03,09,1.10
2011,03,01,03,10,2.00
2011,03,01,03,11,2.30
2011,03,01,03,12,3.90
2011,03,01,03,13,3.00
2011,03,01,03,14,3.00
2011,03,01,03,15,2.60
2011,03,01,03,16,0.60
2011,03,01,03,17,0.20
2011,03,01,03,18,0.20
2011,03,01,03,19,1.80
2011,03,01,03,20,2.70
2011,03,01,03,21,2.30
2011,03,01,03,22,0.70
2011,03,01,03,23,1.10
2011,03,01,03,24,0.00
2011,03,01,03,25,0.20
2011,03,01,03,26,0.00
2011,03,01,03,27,0.00
2011,03,01,03,28,0.00
2011,03,01,03,29,0.00
2011,03,01,03,30,0.00
2011,03,01,03,31,0.70
2011,03,01,03,32,0.10
2011,03,01,03,33,0.60
2011,03,01,03,34,1.60
2011,03,01,03,35,1.20
2011,03,01,03,36,0.00
2011,03,01,03,37,0.00
2011,03,01,03,38,0.00
2011,03,01,03,39,0.50
2011,03,01,03,40,2.00
2011,03,01,03,41,2.50
2011,03,01,03,42,2.60
2011,03,01,03,43,1.90
2011,03,01,03,44,0.00
2011,03,01,03,45,0.30
2011,03,01,03,46,0.60
2011,03,01,03,47,0.00
2011,03,01,03,48,0.10
2011,03,01,03,49,0.00
2011,03,01,03,50,0.00
2011,03,01,03,51,0.00
2011,03,01,03,52,0.00
2011,03,01,03,53,0.00
2011,03,01,03,54,0.20
2011,03,01,03,55,0.00
2011,03,01,03,56,3.00
2011,03,01,03,57,1.50
2011,03,01,03,58,0.10
2011,03,01,03,59,1.20
2011,03,01,04,00,2.00
2011,03,01,04,01,0.10
2011,03,01,04,02,0.50
2011,03,01,04,03,0.50
2011,03,01,04,04,0.30
2011,03,01,04,05,1.10
2011,03,01,04,06,2.80
2011,03,01,04,07,1.50
2011,03,01,04,08,0.50
2011,03,01,04,09,0.00
2011,03,01,04,10,0.00
2011,03,01,04,11,0.00
2011,03,01,04,12,0.00
2011,03,01,04,13,0.00
2011,03,01,04,14,0.80
2011,03,01,04,15,2.40
2011,03,01,04,16,3.90
2011,03,01,04,17,3.80
2011,03,01,04,18,2.70
2011,03,01,04,19,4.30
2011,03,01,04,20,3.40
2011,03,01,04,21,2.20
2011,03,01,04,22,2.30
2011,03,01,04,23,1.50
2011,03,01,04,24,1.30
2011,03,01,04,25,0.00
2011,03,01,04,26,0.10
2011,03,01,04,27,1.30
2011,03,01,04,28,1.10
2011,03,01,04,29,3.80
2011,03,01,04,30,2.10
2011,03,01,04,31,0.80
2011,03,01,04,32,1.00
2011,03,01,04,33,0.80
2011,03,01,04,34,0.00
2011,03,01,04,35,0.00
2011,03,01,04,36,0.10
2011,03,01,04,37,0.00
2011,03,01,04,38,0.00
2011,03,01,04,39,0.00
2011,03,01,04,40,0.20
2011,03,01,04,41,0.00
2011,03,01,04,42,0.00
2011,03,01,04,43,0.00
2011,03,01,04,44,2.20
2011,03,01,04,45,2.50
2011,03,01,04,46,2.50
2011,03,01,04,47,0.30
2011,03,01,04,48,0.20
2011,03,01,04,49,0.00
2011,03,01,04,50,0.00
2011,03,01,04,51,0.20
2011,03,01,04,52,1.20
2011,03,01,04,53,0.10
2011,03,01,04,54,0.00
2011,03,01,04,55,0.90
2011,03,01,04,56,1.40
2011,03,01,04,57,4.70
2011,03,01,04,58,1.50
2011,03,01,04,59,0.90
2011,03,01,05,00,2.90
2011,03,01,05,01,2.40
2011,03,01,05,02,1.50
2011,03,01,05,03,0.30
2011,03,01,05,04,0.10
2011,03,01,05,05,0.00
2011,03,01,05,06,1.50
2011,03,01,05,07,1.60
2011,03,01,05,08,2.30
2011,03,01,05,09,5.00
2011,03,01,05,10,5.30
2011,03,01,05,11,2.50
2011,03,01,05,12,1.00
2011,03,01,05,13,0.00
2011,03,01,05,14,0.10
2011,03,01,05,15,0.10
2011,03,01,05,16,0.00
2011,03,01,05,17,0.50
2011,03,01,05,18,1.10
2011,03,01,05,19,2.30
2011,03,01,05,20,0.40
2011,03,01,05,21,1.70
2011,03,01,05,22,2.90
2011,03,01,05,23,2.00
2011,03,01,05,24,1.40
2011,03,01,05,25,1.70
2011,03,01,05,26,2.50
2011,03,01,05,27,1.80
2011,03,01,05,28,3.20
2011,03,01,05,29,1.40
2011,03,01,05,30,0.80
2011,03,01,05,31,5.80
2011,03,01,05,32,5.10
2011,03,01,05,33,5.10
2011,03,01,05,34,2.60
2011,03,01,05,35,1.40
2011,03,01,05,36,5.40
2011,03,01,05,37,4.60
2011,03,01,05,38,4.40
2011,03,01,05,39,1.60
2011,03,01,05,40,0.20
2011,03,01,05,41,1.00
2011,03,01,05,42,2.60
2011,03,01,05,43,1.80
2011,03,01,05,44,3.00
2011,03,01,05,45,5.10
2011,03,01,05,46,5.70
2011,03,01,05,47,6.90
2011,03,01,05,48,4.90
2011,03,01,05,49,4.30
2011,03,01,05,50,6.30
2011,03,01,05,51,4.70
2011,03,01,05,52,6.70
2011,03,01,05,53,4.00
2011,03,01,05,54,3.80
2011,03,01,05,55,7.70
2011,03,01,05,56,5.40
2011,03,01,05,57,5.10
2011,03,01,05,58,3.80
2011,03,01,05,59,6.20
2011,03,01,06,00,8.10
2011,03,01,06,01,6.40
2011,03,01,06,02,4.40
2011,03,01,06,03,3.90
2011,03,01,06,04,3.70
2011,03,01,06,05,5.40
2011,03,01,06,06,4.30
2011,03,01,06,07,5.80
2011,03,01,06,08,9.70
2011,03,01,06,09,6.00
2011,03,01,06,10,3.80
2011,03,01,06,11,5.10
2011,03,01,06,12,4.20
2011,03,01,06,13,4.30
2011,03,01,06,14,3.30
2011,03,01,06,15,2.00
2011,03,01,06,16,1.40
2011,03,01,06,17,0.50
2011,03,01,06,18,0.00
2011,03,01,06,19,1.80
2011,03,01,06,20,2.50
2011,03,01,06,21,3.50
2011,03,01,06,22,5.60
2011,03,01,06,23,3.50
2011,03,01,06,24,2.60
2011,03,01,06,25,3.20
2011,03,01,06,26,8.00
2011,03,01,06,27,4.50
2011,03,01,06,28,2.50
2011,03,01,06,29,5.60
2011,03,01,06,30,4.80
2011,03,01,06,31,2.70
2011,03,01,06,32,1.50
2011,03,01,06,33,1.90
2011,03,01,06,34,2.90
2011,03,01,06,35,4.50
2011,03,01,06,36,2.80
2011,03,01,06,37,1.40
2011,03,01,06,38,4.00
2011,03,01,06,39,2.00
2011,03,01,06,40,1.50
2011,03,01,06,41,1.20
2011,03,01,06,42,1.20
2011,03,01,06,43,4.10
2011,03,01,06,44,2.50
2011,03,01,06,45,2.60
2011,03,01,06,46,3.40
2011,03,01,06,47,3.70
2011,03,01,06,48,3.50
2011,03,01,06,49,4.80
2011,03,01,06,50,4.70
2011,03,01,06,51,3.50
2011,03,01,06,52,4.00
2011,03,01,06,53,4.40
2011,03,01,06,54,4.10
2011,03,01,06,55,3.80
2011,03,01,06,56,3.60
2011,03,01,06,57,6.00
2011,03,01,06,58,4.00
2011,03,01,06,59,3.50
2011,03,01,07,00,2.40
2011,03,01,07,01,4.90
2011,03,01,07,02,3.50
2011,03,01,07,03,3.30
2011,03,01,07,04,3.60
2011,03,01,07,05,2.00
2011,03,01,07,06,0.00
2011,03,01,07,07,0.40
2011,03,01,07,08,0.00
2011,03,01,07,09,0.60
2011,03,01,07,10,1.70
2011,03,01,07,11,2.10
2011,03,01,07,12,1.80
2011,03,01,07,13,0.90
2011,03,01,07,14,0.20
2011,03,01,07,15,1.90
2011,03,01,07,16,4.10
2011,03,01,07,17,4.70
2011,03,01,07,18,3.40
2011,03,01,07,19,4.00
2011,03,01,07,20,3.90
2011,03,01,07,21,3.10
2011,03,01,07,22,3.40
2011,03,01,07,23,2.80
2011,03,01,07,24,1.20
2011,03,01,07,25,2.30
2011,03,01,07,26,4.70
2011,03,01,07,27,2.70
2011,03,01,07,28,2.20
2011,03,01,07,29,2.10
2011,03,01,07,30,2.60
2011,03,01,07,31,3.00
2011,03,01,07,32,4.50
2011,03,01,07,33,3.90
2011,03,01,07,34,3.10
2011,03,01,07,35,3.90
2011,03,01,07,36,3.00
2011,03,01,07,37,3.80
2011,03,01,07,38,4.00
2011,03,01,07,39,4.80
2011,03,01,07,40,5.80
2011,03,01,07,41,4.20
2011,03,01,07,42,3.30
2011,03,01,07,43,3.50
2011,03,01,07,44,5.20
2011,03,01,07,45,8.20
2011,03,01,07,46,4.10
2011,03,01,07,47,6.90
2011,03,01,07,48,6.80
2011,03,01,07,49,6.80
2011,03,01,07,50,6.10
2011,03,01,07,51,7.30
2011,03,01,07,52,8.00
2011,03,01,07,53,6.90
2011,03,01,07,54,5.90
2011,03,01,07,55,8.00
2011,03,01,07,56,4.20
2011,03,01,07,57,3.40
2011,03,01,07,58,3.10
2011,03,01,07,59,5.10
2011,03,01,08,00,6.60
2011,03,01,08,01,9.20
2011,03,01,08,02,4.70
2011,03,01,08,03,5.10
2011,03,01,08,04,7.60
2011,03,01,08,05,5.20
2011,03,01,08,06,3.50
2011,03,01,08,07,5.40
2011,03,01,08,08,6.70
2011,03,01,08,09,5.30
2011,03,01,08,10,4.40
2011,03,01,08,11,3.80
2011,03,01,08,12,4.90
2011,03,01,08,13,5.30
2011,03,01,08,14,5.50
2011,03,01,08,15,6.00
2011,03,01,08,16,3.00
2011,03,01,08,17,3.30
2011,03,01,08,18,6.40
2011,03,01,08,19,5.30
2011,03,01,08,20,3.50
2011,03,01,08,21,5.30
2011,03,01,08,22,2.20
2011,03,01,08,23,1.40
2011,03,01,08,24,4.70
2011,03,01,08,25,3.50
2011,03,01,08,26,2.30
2011,03,01,08,27,1.50
2011,03,01,08,28,2.10
2011,03,01,08,29,2.40
2011,03,01,08,30,2.40
2011,03,01,08,31,1.90
2011,03,01,08,32,2.50
2011,03,01,08,33,1.40
2011,03,01,08,34,1.20
2011,03,01,08,35,0.60
2011,03,01,08,36,1.80
2011,03,01,08,37,2.60
2011,03,01,08,38,1.40
2011,03,01,08,39,1.00
2011,03,01,08,40,2.40
2011,03,01,08,41,2.70
2011,03,01,08,42,2.30
2011,03,01,08,43,4.90
2011,03,01,08,44,5.20
2011,03,01,08,45,4.10
2011,03,01,08,46,3.10
2011,03,01,08,47,4.50
2011,03,01,08,48,4.50
2011,03,01,08,49,3.20
2011,03,01,08,50,2.00
2011,03,01,08,51,2.40
2011,03,01,08,52,4.10
2011,03,01,08,53,5.10
2011,03,01,08,54,4.60
2011,03,01,08,55,6.40
2011,03,01,08,56,3.20
2011,03,01,08,57,2.90
2011,03,01,08,58,7.50
2011,03,01,08,59,5.60
2011,03,01,09,00,4.90
2011,03,01,09,01,1.80
2011,03,01,09,02,3.00
2011,03,01,09,03,5.90
2011,03,01,09,04,5.70
2011,03,01,09,05,8.00
2011,03,01,09,06,7.20
2011,03,01,09,07,5.20
2011,03,01,09,08,3.50
2011,03,01,09,09,6.50
2011,03,01,09,10,6.90
2011,03,01,09,11,10.60
2011,03,01,09,12,8.30
2011,03,01,09,13,9.30
2011,03,01,09,14,7.50
2011,03,01,09,15,9.20
2011,03,01,09,16,7.70
2011,03,01,09,17,7.20
2011,03,01,09,18,11.20
2011,03,01,09,19,8.10
2011,03,01,09,20,6.80
2011,03,01,09,21,6.40
2011,03,01,09,22,12.30
2011,03,01,09,23,8.00
2011,03,01,09,24,7.00
2011,03,01,09,25,6.00
2011,03,01,09,26,8.40
2011,03,01,09,27,7.70
2011,03,01,09,28,7.70
2011,03,01,09,29,13.80
2011,03,01,09,30,10.30
2011,03,01,09,31,8.60
2011,03,01,09,32,10.00
2011,03,01,09,33,9.90
2011,03,01,09,34,7.80
2011,03,01,09,35,7.70
2011,03,01,09,36,5.40
2011,03,01,09,37,8.60
2011,03,01,09,38,6.30
2011,03,01,09,39,8.00
2011,03,01,09,40,10.60
2011,03,01,09,41,7.90
2011,03,01,09,42,7.90
2011,03,01,09,43,6.30
2011,03,01,09,44,3.00
2011,03,01,09,45,4.30
2011,03,01,09,46,4.80
2011,03,01,09,47,4.00
2011,03,01,09,48,6.40
2011,03,01,09,49,6.70
2011,03,01,09,50,5.20
2011,03,01,09,51,6.60
2011,03,01,09,52,5.80
2011,03,01,09,53,9.60
2011,03,01,09,54,5.80
2011,03,01,09,55,3.90
2011,03,01,09,56,5.50
2011,03,01,09,57,9.70
2011,03,01,09,58,10.40
2011,03,01,09,59,10.10
2011,03,01,10,00,9.40
2011,03,01,10,01,9.30
2011,03,01,10,02,9.60
2011,03,01,10,03,10.60
2011,03,01,10,04,11.30
2011,03,01,10,05,9.80
2011,03,01,10,06,9.80
2011,03,01,10,07,10.10
2011,03,01,10,08,14.40
2011,03,01,10,09,15.30
2011,03,01,10,10,9.80
2011,03,01,10,11,7.00
2011,03,01,10,12,10.30
2011,03,01,10,13,6.20
2011,03,01,10,14,5.30
2011,03,01,10,15,7.80
2011,03,01,10,16,7.20
2011,03,01,10,17,7.50
2011,03,01,10,18,12.00
2011,03,01,10,19,12.20
2011,03,01,10,20,10.70
2011,03,01,10,21,10.90
2011,03,01,10,22,12.70
2011,03,01,10,23,14.90
2011,03,01,10,24,9.30
2011,03,01,10,25,7.00
2011,03,01,10,26,8.50
2011,03,01,10,27,8.50
2011,03,01,10,28,11.40
2011,03,01,10,29,13.50
2011,03,01,10,30,9.70
2011,03,01,10,31,12.80
2011,03,01,10,32,11.20
2011,03,01,10,33,12.00
2011,03,01,10,34,12.50
2011,03,01,10,35,15.30
2011,03,01,10,36,7.50
2011,03,01,10,37,9.60
2011,03,01,10,38,12.70
2011,03,01,10,39,12.60
2011,03,01,10,40,6.60
2011,03,01,10,41,7.60
2011,03,01,10,42,4.60
2011,03,01,10,43,9.40
2011,03,01,10,44,10.50
2011,03,01,10,45,11.30
2011,03,01,10,46,9.70
2011,03,01,10,47,7.50
2011,03,01,10,48,5.50
2011,03,01,10,49,8.40
2011,03,01,10,50,9.00
2011,03,01,10,51,9.70
2011,03,01,10,52,10.10
2011,03,01,10,53,8.80
2011,03,01,10,54,10.70
2011,03,01,10,55,10.90
2011,03,01,10,56,6.50
2011,03,01,10,57,7.80
2011,03,01,10,58,10.30
2011,03,01,10,59,7.30
2011,03,01,11,00,6.10
2011,03,01,11,01,9.70
2011,03,01,11,02,6.40
2011,03,01,11,03,9.80
2011,03,01,11,04,9.70
2011,03,01,11,05,7.50
2011,03,01,11,06,7.60
2011,03,01,11,07,8.80
2011,03,01,11,08,9.40
2011,03,01,11,09,13.10
2011,03,01,11,10,15.80
2011,03,01,11,11,15.00
2011,03,01,11,12,9.80
2011,03,01,11,13,11.80
2011,03,01,11,14,11.80
2011,03,01,11,15,8.60
2011,03,01,11,16,7.50
2011,03,01,11,17,8.30
2011,03,01,11,18,11.90
2011,03,01,11,19,5.20
2011,03,01,11,20,7.40
2011,03,01,11,21,8.20
2011,03,01,11,22,12.20
2011,03,01,11,23,10.10
2011,03,01,11,24,8.20
2011,03,01,11,25,10.60
2011,03,01,11,26,11.30
2011,03,01,11,27,9.00
2011,03,01,11,28,7.90
2011,03,01,11,29,8.90
2011,03,01,11,30,9.20
2011,03,01,11,31,7.70
2011,03,01,11,32,10.80
2011,03,01,11,33,12.00
2011,03,01,11,34,11.90
2011,03,01,11,35,11.70
2011,03,01,11,36,7.30
2011,03,01,11,37,7.50
2011,03,01,11,38,7.10
2011,03,01,11,39,4.80
2011,03,01,11,40,4.40
2011,03,01,11,41,4.40
2011,03,01,11,42,3.20
2011,03,01,11,43,6.50
2011,03,01,11,44,5.40
2011,03,01,11,45,4.80
2011,03,01,11,46,4.40
2011,03,01,11,47,9.30
2011,03,01,11,48,7.20
2011,03,01,11,49,7.60
2011,03,01,11,50,8.30
2011,03,01,11,51,7.70
2011,03,01,11,52,4.70
2011,03,01,11,53,3.80
2011,03,01,11,54,5.90
2011,03,01,11,55,5.90
2011,03,01,11,56,7.40
2011,03,01,11,57,6.40
2011,03,01,11,58,5.50
2011,03,01,11,59,9.00
2011,03,01,12,00,10.70
2011,03,01,12,01,7.10
2011,03,01,12,02,8.40
2011,03,01,12,03,8.90
2011,03,01,12,04,6.80
2011,03,01,12,05,7.00
2011,03,01,12,06,9.30
2011,03,01,12,07,7.30
2011,03,01,12,08,9.10
2011,03,01,12,09,11.00
2011,03,01,12,10,6.20
2011,03,01,12,11,8.10
2011,03,01,12,12,8.00
2011,03,01,12,13,5.50
2011,03,01,12,14,5.00
2011,03,01,12,15,4.50
2011,03,01,12,16,3.90
2011,03,01,12,17,4.20
2011,03,01,12,18,1.40
2011,03,01,12,19,5.00
2011,03,01,12,20,2.10
2011,03,01,12,21,7.00
2011,03,01,12,22,8.00
2011,03,01,12,23,7.10
2011,03,01,12,24,6.40
2011,03,01,12,25,7.30
2011,03,01,12,26,8.10
2011,03,01,12,27,14.50
2011,03,01,12,28,8.80
2011,03,01,12,29,10.60
2011,03,01,12,30,10.30
2011,03,01,12,31,16.20
2011,03,01,12,32,9.00
2011,03,01,12,33,11.30
2011,03,01,12,34,13.70
2011,03,01,12,35,12.40
2011,03,01,12,36,10.00
2011,03,01,12,37,11.10
2011,03,01,12,38,11.80
2011,03,01,12,39,10.20
2011,03,01,12,40,10.30
2011,03,01,12,41,7.00
2011,03,01,12,42,5.80
2011,03,01,12,43,4.30
2011,03,01,12,44,8.20
2011,03,01,12,45,13.60
2011,03,01,12,46,11.60
2011,03,01,12,47,9.70
2011,03,01,12,48,7.00
2011,03,01,12,49,5.80
2011,03,01,12,50,7.90
2011,03,01,12,51,8.10
2011,03,01,12,52,8.10
2011,03,01,12,53,7.00
2011,03,01,12,54,6.20
2011,03,01,12,55,10.10
2011,03,01,12,56,11.80
2011,03,01,12,57,15.20
2011,03,01,12,58,14.00
2011,03,01,12,59,13.50
2011,03,01,13,00,13.00
2011,03,01,13,01,9.20
2011,03,01,13,02,7.90
2011,03,01,13,03,7.50
2011,03,01,13,04,7.00
2011,03,01,13,05,6.40
2011,03,01,13,06,5.00
2011,03,01,13,07,5.80
2011,03,01,13,08,6.70
2011,03,01,13,09,6.30
2011,03,01,13,10,6.20
2011,03,01,13,11,5.70
2011,03,01,13,12,13.00
2011,03,01,13,13,11.70
2011,03,01,13,14,8.20
2011,03,01,13,15,7.70
2011,03,01,13,16,8.60
2011,03,01,13,17,8.50
2011,03,01,13,18,10.00
2011,03,01,13,19,5.80
2011,03,01,13,20,7.40
2011,03,01,13,21,6.10
2011,03,01,13,22,6.90
2011,03,01,13,23,8.70
2011,03,01,13,24,8.70
2011,03,01,13,25,11.70
2011,03,01,13,26,14.90
2011,03,01,13,27,12.10
2011,03,01,13,28,8.10
2011,03,01,13,29,2.40
2011,03,01,13,30,6.50
2011,03,01,13,31,6.00
2011,03,01,13,32,4.00
2011,03,01,13,33,7.30
2011,03,01,13,34,11.40
2011,03,01,13,35,11.90
2011,03,01,13,36,8.50
2011,03,01,13,37,8.90
2011,03,01,13,38,15.70
2011,03,01,13,39,14.50
2011,03,01,13,40,21.80
2011,03,01,13,41,12.40
2011,03,01,13,42,11.70
2011,03,01,13,43,14.10
2011,03,01,13,44,17.30
2011,03,01,13,45,10.00
2011,03,01,13,46,11.90
2011,03,01,13,47,14.90
2011,03,01,13,48,15.80
2011,03,01,13,49,16.40
2011,03,01,13,50,9.80
2011,03,01,13,51,15.70
2011,03,01,13,52,12.20
2011,03,01,13,53,12.60
2011,03,01,13,54,12.80
2011,03,01,13,55,14.20
2011,03,01,13,56,14.90
2011,03,01,13,57,10.50
2011,03,01,13,58,12.40
2011,03,01,13,59,12.50
2011,03,01,14,00,15.40
2011,03,01,14,01,14.30
2011,03,01,14,02,17.20
2011,03,01,14,03,11.90
2011,03,01,14,04,17.40
2011,03,01,14,05,11.00
2011,03,01,14,06,15.60
2011,03,01,14,07,13.50
2011,03,01,14,08,10.90
2011,03,01,14,09,12.70
2011,03,01,14,10,20.20
2011,03,01,14,11,15.20
2011,03,01,14,12,7.90
2011,03,01,14,13,9.90
2011,03,01,14,14,10.60
2011,03,01,14,15,14.60
2011,03,01,14,16,17.00
2011,03,01,14,17,10.70
2011,03,01,14,18,13.00
2011,03,01,14,19,10.30
2011,03,01,14,20,10.30
2011,03,01,14,21,8.50
2011,03,01,14,22,12.40
2011,03,01,14,23,12.50
2011,03,01,14,24,12.40
2011,03,01,14,25,12.50
2011,03,01,14,26,8.90
2011,03,01,14,27,8.30
2011,03,01,14,28,8.20
2011,03,01,14,29,15.20
2011,03,01,14,30,11.10
2011,03,01,14,31,8.70
2011,03,01,14,32,6.70
2011,03,01,14,33,6.70
2011,03,01,14,34,5.20
2011,03,01,14,35,7.20
2011,03,01,14,36,15.80
2011,03,01,14,37,14.80
2011,03,01,14,38,12.60
2011,03,01,14,39,12.50
2011,03,01,14,40,8.30
2011,03,01,14,41,10.10
2011,03,01,14,42,12.70
2011,03,01,14,43,10.10
2011,03,01,14,44,11.60
2011,03,01,14,45,10.60
2011,03,01,14,46,7.40
2011,03,01,14,47,12.60
2011,03,01,14,48,6.80
2011,03,01,14,49,8.70
2011,03,01,14,50,12.70
2011,03,01,14,51,9.40
2011,03,01,14,52,8.60
2011,03,01,14,53,11.70
2011,03,01,14,54,9.60
2011,03,01,14,55,7.00
2011,03,01,14,56,9.90
2011,03,01,14,57,6.20
2011,03,01,14,58,10.40
2011,03,01,14,59,11.60
2011,03,01,15,00,10.00
2011,03,01,15,01,7.70
2011,03,01,15,02,8.40
2011,03,01,15,03,9.60
2011,03,01,15,04,7.50
2011,03,01,15,05,13.20
2011,03,01,15,06,12.80
2011,03,01,15,07,14.20
2011,03,01,15,08,15.10
2011,03,01,15,09,14.20
2011,03,01,15,10,8.80
2011,03,01,15,11,8.50
2011,03,01,15,12,9.90
2011,03,01,15,13,15.10
2011,03,01,15,14,13.50
2011,03,01,15,15,9.30
2011,03,01,15,16,8.20
2011,03,01,15,17,8.30
2011,03,01,15,18,10.90
2011,03,01,15,19,12.30
2011,03,01,15,20,12.40
2011,03,01,15,21,11.70
2011,03,01,15,22,11.60
2011,03,01,15,23,10.30
2011,03,01,15,24,9.70
2011,03,01,15,25,8.10
2011,03,01,15,26,7.50
2011,03,01,15,27,8.90
2011,03,01,15,28,8.20
2011,03,01,15,29,8.40
2011,03,01,15,30,10.70
2011,03,01,15,31,8.20
2011,03,01,15,32,12.50
2011,03,01,15,33,9.50
2011,03,01,15,34,6.50
2011,03,01,15,35,8.90
2011,03,01,15,36,9.20
2011,03,01,15,37,10.50
2011,03,01,15,38,7.70
2011,03,01,15,39,7.60
2011,03,01,15,40,8.00
2011,03,01,15,41,8.00
2011,03,01,15,42,6.90
2011,03,01,15,43,10.80
2011,03,01,15,44,12.00
2011,03,01,15,45,8.60
2011,03,01,15,46,13.00
2011,03,01,15,47,11.60
2011,03,01,15,48,12.00
2011,03,01,15,49,10.00
2011,03,01,15,50,14.10
2011,03,01,15,51,11.70
2011,03,01,15,52,9.60
2011,03,01,15,53,11.10
2011,03,01,15,54,12.80
2011,03,01,15,55,9.60
2011,03,01,15,56,8.50
2011,03,01,15,57,9.40
2011,03,01,15,58,18.70
2011,03,01,15,59,20.60
2011,03,01,16,00,15.10
2011,03,01,16,01,16.30
2011,03,01,16,02,11.00
2011,03,01,16,03,8.10
2011,03,01,16,04,7.40
2011,03,01,16,05,9.00
2011,03,01,16,06,10.00
2011,03,01,16,07,6.40
2011,03,01,16,08,9.50
2011,03,01,16,09,10.20
2011,03,01,16,10,10.90
2011,03,01,16,11,9.60
2011,03,01,16,12,11.10
2011,03,01,16,13,8.10
2011,03,01,16,14,8.40
2011,03,01,16,15,6.40
2011,03,01,16,16,6.50
2011,03,01,16,17,5.40
2011,03,01,16,18,8.20
2011,03,01,16,19,6.40
2011,03,01,16,20,6.10
2011,03,01,16,21,10.50
2011,03,01,16,22,13.40
2011,03,01,16,23,7.00
2011,03,01,16,24,6.70
2011,03,01,16,25,7.50
2011,03,01,16,26,7.20
2011,03,01,16,27,3.80
2011,03,01,16,28,8.50
2011,03,01,16,29,12.20
2011,03,01,16,30,10.10
2011,03,01,16,31,10.50
2011,03,01,16,32,13.70
2011,03,01,16,33,12.30
2011,03,01,16,34,17.50
2011,03,01,16,35,14.90
2011,03,01,16,36,7.50
2011,03,01,16,37,9.20
2011,03,01,16,38,5.50
2011,03,01,16,39,7.00
2011,03,01,16,40,13.20
2011,03,01,16,41,15.30
2011,03,01,16,42,17.40
2011,03,01,16,43,15.60
2011,03,01,16,44,13.80
2011,03,01,16,45,8.00
2011,03,01,16,46,9.60
2011,03,01,16,47,13.90
2011,03,01,16,48,12.20
2011,03,01,16,49,7.50
2011,03,01,16,50,13.00
2011,03,01,16,51,9.00
2011,03,01,16,52,4.50
2011,03,01,16,53,8.90
2011,03,01,16,54,15.00
2011,03,01,16,55,12.20
2011,03,01,16,56,12.20
2011,03,01,16,57,11.60
2011,03,01,16,58,12.70
2011,03,01,16,59,12.70
2011,03,01,17,00,10.10
2011,03,01,17,01,7.30
2011,03,01,17,02,7.70
2011,03,01,17,03,15.20
2011,03,01,17,04,12.20
2011,03,01,17,05,8.30
2011,03,01,17,06,7.00
2011,03,01,17,07,8.70
2011,03,01,17,08,8.70
2011,03,01,17,09,10.20
2011,03,01,17,10,9.30
2011,03,01,17,11,16.40
2011,03,01,17,12,7.70
2011,03,01,17,13,6.30
2011,03,01,17,14,7.20
2011,03,01,17,15,6.80
2011,03,01,17,16,7.00
2011,03,01,17,17,4.30
2011,03,01,17,18,4.70
2011,03,01,17,19,4.30
2011,03,01,17,20,4.80
2011,03,01,17,21,6.00
2011,03,01,17,22,8.70
2011,03,01,17,23,3.50
2011,03,01,17,24,6.00
2011,03,01,17,25,11.30
2011,03,01,17,26,9.80
2011,03,01,17,27,6.10
2011,03,01,17,28,4.90
2011,03,01,17,29,6.10
2011,03,01,17,30,7.20
2011,03,01,17,31,4.20
2011,03,01,17,32,6.00
2011,03,01,17,33,7.50
2011,03,01,17,34,7.10
2011,03,01,17,35,5.40
2011,03,01,17,36,4.10
2011,03,01,17,37,5.40
2011,03,01,17,38,6.60
2011,03,01,17,39,7.10
2011,03,01,17,40,6.00
2011,03,01,17,41,8.50
2011,03,01,17,42,5.50
2011,03,01,17,43,9.60
2011,03,01,17,44,8.40
2011,03,01,17,45,8.30
2011,03,01,17,46,6.00
2011,03,01,17,47,8.10
2011,03,01,17,48,6.90
2011,03,01,17,49,7.60
2011,03,01,17,50,7.10
2011,03,01,17,51,8.00
2011,03,01,17,52,10.30
2011,03,01,17,53,10.70
2011,03,01,17,54,8.90
2011,03,01,17,55,11.30
2011,03,01,17,56,8.10
2011,03,01,17,57,6.90